Year,Month,Day,Hour,Minute,Value (Times are PST for temperature in C)
2018,11,08,00,00,4.20
2018,11,08,00,01,4.20
2018,11,08,00,02,4.20
2018,11,08,00,03,4.20
2018,11,08,00,04,4.20
2018,11,08,00,05,4.20
2018,11,08,00,06,4.20
2018,11,08,00,07,4.20
2018,11,08,00,08,4.20
2018,11,08,00,09,4.20
2018,11,08,00,10,4.20
2018,11,08,00,11,4.10
2018,11,08,00,12,4.10
2018,11,08,00,13,4.10
2018,11,08,00,14,4.00
2018,11,08,00,15,4.00
2018,11,08,00,16,3.90
2018,11,08,00,17,3.90
2018,11,08,00,18,3.90
2018,11,08,00,19,3.90
2018,11,08,00,20,3.90
2018,11,08,00,21,3.80
2018,11,08,00,22,3.80
2018,11,08,00,23,3.80
2018,11,08,00,24,3.80
2018,11,08,00,25,3.80
2018,11,08,00,26,3.80
2018,11,08,00,27,3.80
2018,11,08,00,28,3.80
2018,11,08,00,29,3.80
2018,11,08,00,30,3.80
2018,11,08,00,31,3.80
2018,11,08,00,32,3.80
2018,11,08,00,33,3.80
2018,11,08,00,34,3.80
2018,11,08,00,35,3.80
2018,11,08,00,36,3.80
2018,11,08,00,37,3.80
2018,11,08,00,38,3.80
2018,11,08,00,39,3.80
2018,11,08,00,40,3.80
2018,11,08,00,41,3.80
2018,11,08,00,42,3.80
2018,11,08,00,43,3.80
2018,11,08,00,44,3.80
2018,11,08,00,45,3.80
2018,11,08,00,46,3.80
2018,11,08,00,47,3.80
2018,11,08,00,48,3.80
2018,11,08,00,49,3.80
2018,11,08,00,50,3.90
2018,11,08,00,51,3.90
2018,11,08,00,52,3.90
2018,11,08,00,53,3.90
2018,11,08,00,54,3.90
2018,11,08,00,55,3.80
2018,11,08,00,56,3.80
2018,11,08,00,57,3.80
2018,11,08,00,58,3.80
2018,11,08,00,59,3.80
2018,11,08,01,00,3.80
2018,11,08,01,01,3.80
2018,11,08,01,02,3.80
2018,11,08,01,03,3.80
2018,11,08,01,04,3.80
2018,11,08,01,05,3.80
2018,11,08,01,06,3.80
2018,11,08,01,07,3.80
2018,11,08,01,08,3.80
2018,11,08,01,09,3.80
2018,11,08,01,10,3.80
2018,11,08,01,11,3.80
2018,11,08,01,12,3.80
2018,11,08,01,13,3.80
2018,11,08,01,14,3.80
2018,11,08,01,15,3.70
2018,11,08,01,16,3.70
2018,11,08,01,17,3.70
2018,11,08,01,18,3.70
2018,11,08,01,19,3.70
2018,11,08,01,20,3.70
2018,11,08,01,21,3.70
2018,11,08,01,22,3.70
2018,11,08,01,23,3.70
2018,11,08,01,24,3.70
2018,11,08,01,25,3.70
2018,11,08,01,26,3.70
2018,11,08,01,27,3.70
2018,11,08,01,28,3.80
2018,11,08,01,29,3.80
2018,11,08,01,30,3.80
2018,11,08,01,31,3.80
2018,11,08,01,32,3.80
2018,11,08,01,33,3.80
2018,11,08,01,34,3.80
2018,11,08,01,35,3.80
2018,11,08,01,36,3.80
2018,11,08,01,37,3.80
2018,11,08,01,38,3.80
2018,11,08,01,39,3.80
2018,11,08,01,40,3.80
2018,11,08,01,41,3.80
2018,11,08,01,42,3.70
2018,11,08,01,43,3.70
2018,11,08,01,44,3.70
2018,11,08,01,45,3.70
2018,11,08,01,46,3.70
2018,11,08,01,47,3.70
2018,11,08,01,48,3.70
2018,11,08,01,49,3.70
2018,11,08,01,50,3.60
2018,11,08,01,51,3.60
2018,11,08,01,52,3.60
2018,11,08,01,53,3.50
2018,11,08,01,54,3.50
2018,11,08,01,55,3.40
2018,11,08,01,56,3.40
2018,11,08,01,57,3.40
2018,11,08,01,58,3.30
2018,11,08,01,59,3.30
2018,11,08,02,00,3.30
2018,11,08,02,01,3.30
2018,11,08,02,02,3.30
2018,11,08,02,03,3.30
2018,11,08,02,04,3.20
2018,11,08,02,05,3.20
2018,11,08,02,06,3.20
2018,11,08,02,07,3.20
2018,11,08,02,08,3.20
2018,11,08,02,09,3.20
2018,11,08,02,10,3.20
2018,11,08,02,11,3.20
2018,11,08,02,12,3.20
2018,11,08,02,13,3.20
2018,11,08,02,14,3.20
2018,11,08,02,15,3.20
2018,11,08,02,16,3.20
2018,11,08,02,17,3.20
2018,11,08,02,18,3.20
2018,11,08,02,19,3.20
2018,11,08,02,20,3.20
2018,11,08,02,21,3.20
2018,11,08,02,22,3.20
2018,11,08,02,23,3.20
2018,11,08,02,24,3.20
2018,11,08,02,25,3.20
2018,11,08,02,26,3.20
2018,11,08,02,27,3.20
2018,11,08,02,28,3.20
2018,11,08,02,29,3.20
2018,11,08,02,30,3.20
2018,11,08,02,31,3.20
2018,11,08,02,32,3.20
2018,11,08,02,33,3.20
2018,11,08,02,34,3.20
2018,11,08,02,35,3.20
2018,11,08,02,36,3.20
2018,11,08,02,37,3.20
2018,11,08,02,38,3.20
2018,11,08,02,39,3.20
2018,11,08,02,40,3.20
2018,11,08,02,41,3.20
2018,11,08,02,42,3.10
2018,11,08,02,43,3.10
2018,11,08,02,44,3.10
2018,11,08,02,45,3.10
2018,11,08,02,46,3.10
2018,11,08,02,47,3.10
2018,11,08,02,48,3.10
2018,11,08,02,49,3.10
2018,11,08,02,50,3.10
2018,11,08,02,51,3.10
2018,11,08,02,52,3.10
2018,11,08,07,40,4.00
2018,11,08,07,41,4.00
2018,11,08,07,42,4.00
2018,11,08,07,43,3.90
2018,11,08,07,44,3.90
2018,11,08,07,45,3.90
2018,11,08,07,46,3.80
2018,11,08,07,47,3.80
2018,11,08,07,48,3.80
2018,11,08,07,49,3.80
2018,11,08,07,50,3.80
2018,11,08,07,51,3.80
2018,11,08,07,52,3.80
2018,11,08,07,53,3.80
2018,11,08,07,54,3.90
2018,11,08,07,55,3.90
2018,11,08,07,56,3.90
2018,11,08,07,57,3.90
2018,11,08,07,58,4.00
2018,11,08,07,59,4.00
2018,11,08,08,00,4.10
2018,11,08,08,01,4.10
2018,11,08,08,02,4.10
2018,11,08,08,03,4.10
2018,11,08,08,04,4.20
2018,11,08,08,05,4.20
2018,11,08,08,06,4.20
2018,11,08,08,07,4.30
2018,11,08,08,08,4.30
2018,11,08,08,09,4.30
2018,11,08,08,10,4.40
2018,11,08,08,11,4.40
2018,11,08,08,12,4.50
2018,11,08,08,13,4.50
2018,11,08,08,14,4.50
2018,11,08,08,15,4.60
2018,11,08,08,16,4.60
2018,11,08,08,17,4.60
2018,11,08,08,18,4.60
2018,11,08,08,19,4.60
2018,11,08,08,20,4.60
2018,11,08,08,21,4.60
2018,11,08,08,22,4.60
2018,11,08,08,23,4.70
2018,11,08,08,24,4.70
2018,11,08,08,25,4.70
2018,11,08,08,26,4.70
2018,11,08,08,27,4.70
2018,11,08,08,28,4.70
2018,11,08,08,29,4.70
2018,11,08,08,30,4.70
2018,11,08,08,31,4.70
2018,11,08,08,32,4.70
2018,11,08,08,33,4.70
2018,11,08,08,34,4.70
2018,11,08,08,35,4.80
2018,11,08,08,36,4.80
2018,11,08,08,37,4.80
2018,11,08,08,38,4.80
2018,11,08,08,39,4.80
2018,11,08,08,40,4.80
2018,11,08,08,41,4.80
2018,11,08,08,42,4.80
2018,11,08,08,43,4.80
2018,11,08,08,44,4.80
2018,11,08,08,45,4.80
2018,11,08,08,46,4.80
2018,11,08,08,47,4.80
2018,11,08,08,48,4.80
2018,11,08,08,49,4.80
2018,11,08,08,50,4.80
2018,11,08,08,51,4.90
2018,11,08,08,52,4.90
2018,11,08,08,53,4.90
2018,11,08,08,54,5.00
2018,11,08,08,55,5.00
2018,11,08,08,56,5.10
2018,11,08,08,57,5.10
2018,11,08,08,58,5.20
2018,11,08,08,59,5.20
2018,11,08,09,00,5.30
2018,11,08,09,01,5.30
2018,11,08,09,02,5.30
2018,11,08,09,03,5.40
2018,11,08,09,04,5.40
2018,11,08,09,05,5.40
2018,11,08,09,06,5.50
2018,11,08,09,07,5.50
2018,11,08,09,08,5.50
2018,11,08,09,09,5.60
2018,11,08,09,10,5.60
2018,11,08,09,11,5.60
2018,11,08,09,12,5.70
2018,11,08,09,13,5.70
2018,11,08,09,14,5.70
2018,11,08,09,15,5.70
2018,11,08,09,16,5.80
2018,11,08,09,17,5.80
2018,11,08,09,18,5.80
2018,11,08,09,19,5.90
2018,11,08,09,20,5.90
2018,11,08,09,21,5.90
2018,11,08,09,22,6.00
2018,11,08,09,23,6.00
2018,11,08,09,24,6.10
2018,11,08,09,25,6.10
2018,11,08,09,26,6.10
2018,11,08,09,27,6.20
2018,11,08,09,28,6.20
2018,11,08,09,29,6.20
2018,11,08,09,30,6.30
2018,11,08,09,31,6.30
2018,11,08,09,32,6.30
2018,11,08,09,33,6.40
2018,11,08,09,34,6.50
2018,11,08,09,35,6.50
2018,11,08,09,36,6.60
2018,11,08,09,37,6.60
2018,11,08,09,38,6.70
2018,11,08,09,39,6.70
2018,11,08,09,40,6.80
2018,11,08,09,41,6.80
2018,11,08,09,42,6.80
2018,11,08,09,43,6.90
2018,11,08,09,44,7.00
2018,11,08,09,45,7.00
2018,11,08,09,46,7.00
2018,11,08,09,47,7.10
2018,11,08,09,48,7.10
2018,11,08,09,49,7.20
2018,11,08,09,50,7.30
2018,11,08,09,51,7.30
2018,11,08,09,52,7.40
2018,11,08,09,53,7.40
2018,11,08,09,54,7.50
2018,11,08,09,55,7.50
2018,11,08,09,56,7.60
2018,11,08,09,57,7.60
2018,11,08,09,58,7.60
2018,11,08,09,59,7.70
2018,11,08,10,00,7.70
2018,11,08,10,01,7.80
2018,11,08,10,02,7.80
2018,11,08,10,03,7.80
2018,11,08,10,04,7.80
2018,11,08,10,05,7.90
2018,11,08,10,06,7.90
2018,11,08,10,07,7.90
2018,11,08,10,08,8.00
2018,11,08,10,09,8.00
2018,11,08,10,10,8.00
2018,11,08,10,11,8.10
2018,11,08,10,12,8.10
2018,11,08,10,13,8.10
2018,11,08,10,14,8.10
2018,11,08,10,15,8.10
2018,11,08,10,16,8.10
2018,11,08,10,17,8.20
2018,11,08,10,18,8.20
2018,11,08,10,19,8.20
2018,11,08,10,20,8.20
2018,11,08,10,21,8.30
2018,11,08,10,22,8.30
2018,11,08,10,23,8.30
2018,11,08,10,24,8.30
2018,11,08,10,25,8.30
2018,11,08,10,26,8.30
2018,11,08,10,27,8.30
2018,11,08,10,28,8.30
2018,11,08,10,29,8.30
2018,11,08,10,30,8.30
2018,11,08,10,31,8.40
2018,11,08,10,32,8.40
2018,11,08,10,33,8.40
2018,11,08,10,34,8.40
2018,11,08,10,35,8.40
2018,11,08,10,36,8.40
2018,11,08,10,37,8.40
2018,11,08,10,38,8.40
2018,11,08,10,39,8.40
2018,11,08,10,40,8.40
2018,11,08,10,41,8.40
2018,11,08,10,42,8.50
2018,11,08,10,43,8.50
2018,11,08,10,44,8.50
2018,11,08,10,45,8.50
2018,11,08,10,46,8.50
2018,11,08,10,47,8.60
2018,11,08,10,48,8.60
2018,11,08,10,49,8.60
2018,11,08,10,50,8.60
2018,11,08,10,51,8.60
2018,11,08,10,52,8.60
2018,11,08,10,53,8.70
2018,11,08,10,54,8.70
2018,11,08,10,55,8.70
2018,11,08,10,56,8.70
2018,11,08,10,57,8.70
2018,11,08,10,58,8.70
2018,11,08,10,59,8.70
2018,11,08,11,00,8.70
2018,11,08,11,01,8.70
2018,11,08,11,02,8.70
2018,11,08,11,03,8.80
2018,11,08,11,04,8.80
2018,11,08,11,05,8.80
2018,11,08,11,06,8.80
2018,11,08,11,07,8.80
2018,11,08,11,08,8.80
2018,11,08,11,09,8.80
2018,11,08,11,10,8.80
2018,11,08,11,11,8.80
2018,11,08,11,12,8.80
2018,11,08,11,13,8.90
2018,11,08,11,14,8.90
2018,11,08,11,15,8.90
2018,11,08,11,16,8.90
2018,11,08,11,17,9.00
2018,11,08,11,18,9.00
2018,11,08,11,19,9.00
2018,11,08,11,20,9.00
2018,11,08,11,21,9.00
2018,11,08,11,22,9.00
2018,11,08,11,23,9.00
2018,11,08,11,24,8.90
2018,11,08,11,25,8.90
2018,11,08,11,26,9.00
2018,11,08,11,27,9.00
2018,11,08,11,28,9.10
2018,11,08,11,29,9.00
2018,11,08,11,30,9.00
2018,11,08,11,31,8.90
2018,11,08,11,32,8.90
2018,11,08,11,33,8.90
2018,11,08,11,34,8.90
2018,11,08,11,35,8.90
2018,11,08,11,36,8.90
2018,11,08,11,37,8.90
2018,11,08,11,38,8.90
2018,11,08,11,39,8.90
2018,11,08,11,40,8.90
2018,11,08,11,41,8.90
2018,11,08,11,42,8.90
2018,11,08,11,43,9.00
2018,11,08,11,44,9.00
2018,11,08,11,45,9.10
2018,11,08,11,46,9.10
2018,11,08,11,47,9.10
2018,11,08,11,48,9.10
2018,11,08,11,49,9.10
2018,11,08,11,50,9.10
2018,11,08,11,51,9.10
2018,11,08,11,52,9.10
2018,11,08,11,53,9.10
2018,11,08,11,54,9.20
2018,11,08,11,55,9.20
2018,11,08,11,56,9.20
2018,11,08,11,57,9.10
2018,11,08,11,58,9.20
2018,11,08,11,59,9.20
2018,11,08,12,00,9.20
2018,11,08,12,01,9.20
2018,11,08,12,02,9.10
2018,11,08,12,03,9.10
2018,11,08,12,04,9.10
2018,11,08,12,05,9.10
2018,11,08,12,06,9.10
2018,11,08,12,07,9.10
2018,11,08,12,08,9.10
2018,11,08,12,09,9.20
2018,11,08,12,10,9.20
2018,11,08,12,11,9.20
2018,11,08,12,12,9.20
2018,11,08,12,13,9.20
2018,11,08,12,14,9.20
2018,11,08,12,15,9.30
2018,11,08,12,16,9.30
2018,11,08,12,17,9.30
2018,11,08,12,18,9.30
2018,11,08,12,19,9.20
2018,11,08,12,20,9.20
2018,11,08,12,21,9.30
2018,11,08,12,22,9.30
2018,11,08,12,23,9.30
2018,11,08,12,24,9.30
2018,11,08,12,25,9.30
2018,11,08,12,26,9.30
2018,11,08,12,27,9.30
2018,11,08,12,28,9.30
2018,11,08,12,29,9.40
2018,11,08,12,30,9.40
2018,11,08,12,31,9.40
2018,11,08,12,32,9.40
2018,11,08,12,33,9.40
2018,11,08,12,34,9.50
2018,11,08,12,35,9.50
2018,11,08,12,36,9.50
2018,11,08,12,37,9.50
2018,11,08,12,38,9.60
2018,11,08,12,39,9.60
2018,11,08,12,40,9.60
2018,11,08,12,41,9.60
2018,11,08,12,42,9.60
2018,11,08,12,43,9.60
2018,11,08,12,44,9.60
2018,11,08,12,45,9.60
2018,11,08,12,46,9.60
2018,11,08,12,47,9.50
2018,11,08,12,48,9.50
2018,11,08,12,49,9.50
2018,11,08,12,50,9.40
2018,11,08,12,51,9.40
2018,11,08,12,52,9.40
2018,11,08,12,53,9.30
2018,11,08,12,54,9.30
2018,11,08,12,55,9.30
2018,11,08,12,56,9.30
2018,11,08,12,57,9.30
2018,11,08,12,58,9.30
2018,11,08,12,59,9.30
2018,11,08,13,00,9.30
2018,11,08,13,01,9.30
2018,11,08,13,02,9.40
2018,11,08,13,03,9.40
2018,11,08,13,04,9.40
2018,11,08,13,05,9.40
2018,11,08,13,06,9.40
2018,11,08,13,07,9.40
2018,11,08,13,08,9.40
2018,11,08,13,09,9.40
2018,11,08,13,10,9.40
2018,11,08,13,11,9.50
2018,11,08,13,12,9.50
2018,11,08,13,13,9.50
2018,11,08,13,14,9.60
2018,11,08,13,15,9.60
2018,11,08,13,16,9.60
2018,11,08,13,17,9.60
2018,11,08,13,18,9.60
2018,11,08,13,19,9.70
2018,11,08,13,20,9.70
2018,11,08,13,21,9.70
2018,11,08,13,22,9.70
2018,11,08,13,23,9.60
2018,11,08,13,24,9.60
2018,11,08,13,25,9.60
2018,11,08,13,26,9.60
2018,11,08,13,27,9.60
2018,11,08,13,28,9.60
2018,11,08,13,29,9.60
2018,11,08,13,30,9.60
2018,11,08,13,31,9.60
2018,11,08,13,32,9.50
2018,11,08,13,33,9.50
2018,11,08,13,34,9.40
2018,11,08,13,35,9.40
2018,11,08,13,36,9.40
2018,11,08,13,37,9.40
2018,11,08,13,38,9.40
2018,11,08,13,39,9.40
2018,11,08,13,40,9.40
2018,11,08,13,41,9.40
2018,11,08,13,42,9.30
2018,11,08,13,43,9.30
2018,11,08,13,44,9.30
2018,11,08,13,45,9.30
2018,11,08,13,46,9.30
2018,11,08,13,47,9.30
2018,11,08,13,48,9.30
2018,11,08,13,49,9.30
2018,11,08,13,50,9.30
2018,11,08,13,51,9.30
2018,11,08,13,52,9.30
2018,11,08,13,53,9.30
2018,11,08,13,54,9.30
2018,11,08,13,55,9.30
2018,11,08,13,56,9.30
2018,11,08,13,57,9.30
2018,11,08,13,58,9.30
2018,11,08,13,59,9.30
2018,11,08,14,00,9.40
2018,11,08,14,01,9.40
2018,11,08,14,02,9.40
2018,11,08,14,03,9.40
2018,11,08,14,04,9.40
2018,11,08,14,05,9.40
2018,11,08,14,06,9.40
2018,11,08,14,07,9.40
2018,11,08,14,08,9.40
2018,11,08,14,09,9.40
2018,11,08,14,10,9.40
2018,11,08,14,11,9.50
2018,11,08,14,12,9.50
2018,11,08,14,13,9.50
2018,11,08,14,14,9.60
2018,11,08,14,15,9.60
2018,11,08,14,16,9.60
2018,11,08,14,17,9.60
2018,11,08,14,18,9.70
2018,11,08,14,19,9.70
2018,11,08,14,20,9.70
2018,11,08,14,21,9.70
2018,11,08,14,22,9.80
2018,11,08,14,23,9.80
2018,11,08,14,24,9.80
2018,11,08,14,25,9.80
2018,11,08,14,26,9.70
2018,11,08,14,27,9.70
2018,11,08,14,28,9.70
2018,11,08,14,29,9.60
2018,11,08,14,30,9.60
2018,11,08,14,31,9.60
2018,11,08,14,32,9.60
2018,11,08,14,33,9.60
2018,11,08,14,34,9.60
2018,11,08,14,35,9.60
2018,11,08,14,36,9.60
2018,11,08,14,37,9.60
2018,11,08,14,38,9.70
2018,11,08,14,39,9.70
2018,11,08,14,40,9.70
2018,11,08,14,41,9.70
2018,11,08,14,42,9.70
2018,11,08,14,43,9.70
2018,11,08,14,44,9.70
2018,11,08,14,45,9.70
2018,11,08,14,46,9.80
2018,11,08,14,47,9.80
2018,11,08,14,48,9.80
2018,11,08,14,49,9.80
2018,11,08,14,50,9.80
2018,11,08,14,51,9.80
2018,11,08,14,52,9.80
2018,11,08,14,53,9.80
2018,11,08,14,54,9.80
2018,11,08,14,55,9.80
2018,11,08,14,56,9.80
2018,11,08,14,57,9.80
2018,11,08,14,58,9.80
2018,11,08,14,59,9.80
2018,11,08,15,00,9.80
2018,11,08,15,01,9.80
2018,11,08,15,02,9.80
2018,11,08,15,03,9.80
2018,11,08,15,04,9.80
2018,11,08,15,05,9.80
2018,11,08,15,06,9.80
2018,11,08,15,07,9.80
2018,11,08,15,08,9.70
2018,11,08,15,09,9.70
2018,11,08,15,10,9.70
2018,11,08,15,11,9.70
2018,11,08,15,12,9.70
2018,11,08,15,13,9.80
2018,11,08,15,14,9.80
2018,11,08,15,15,9.80
2018,11,08,15,16,9.80
2018,11,08,15,17,9.70
2018,11,08,15,18,9.70
2018,11,08,15,19,9.80
2018,11,08,15,20,9.80
2018,11,08,15,21,9.80
2018,11,08,15,22,9.80
2018,11,08,15,23,9.80
2018,11,08,15,24,9.80
2018,11,08,15,25,9.80
2018,11,08,15,26,9.80
2018,11,08,15,27,9.80
2018,11,08,15,28,9.80
2018,11,08,15,29,9.80
2018,11,08,15,30,9.80
2018,11,08,15,31,9.80
2018,11,08,15,32,9.90
2018,11,08,15,33,9.90
2018,11,08,15,34,9.90
2018,11,08,15,35,10.00
2018,11,08,15,36,9.90
2018,11,08,15,37,9.90
2018,11,08,15,38,9.90
2018,11,08,15,39,9.90
2018,11,08,15,40,9.80
2018,11,08,15,41,9.80
2018,11,08,15,42,9.80
2018,11,08,15,43,9.80
2018,11,08,15,44,9.80
2018,11,08,15,45,9.80
2018,11,08,15,46,9.80
2018,11,08,15,47,9.80
2018,11,08,15,48,9.80
2018,11,08,15,49,9.80
2018,11,08,15,50,9.80
2018,11,08,15,51,9.80
2018,11,08,15,52,9.80
2018,11,08,15,53,9.80
2018,11,08,15,54,9.80
2018,11,08,15,55,9.70
2018,11,08,15,56,9.70
2018,11,08,15,57,9.70
2018,11,08,15,58,9.70
2018,11,08,15,59,9.70
2018,11,08,16,00,9.60
2018,11,08,16,01,9.60
2018,11,08,16,02,9.60
2018,11,08,16,03,9.60
2018,11,08,16,04,9.60
2018,11,08,16,05,9.50
2018,11,08,16,06,9.50
2018,11,08,16,07,9.50
2018,11,08,16,08,9.50
2018,11,08,16,09,9.40
2018,11,08,16,10,9.40
2018,11,08,16,11,9.40
2018,11,08,16,12,9.40
2018,11,08,16,13,9.40
2018,11,08,16,14,9.30
2018,11,08,16,15,9.30
2018,11,08,16,16,9.30
2018,11,08,16,17,9.30
2018,11,08,16,18,9.30
2018,11,08,16,19,9.30
2018,11,08,16,20,9.20
2018,11,08,16,21,9.20
2018,11,08,16,22,9.20
2018,11,08,16,23,9.20
2018,11,08,16,24,9.20
2018,11,08,16,25,9.10
2018,11,08,16,26,9.10
2018,11,08,16,27,9.00
2018,11,08,16,28,9.00
2018,11,08,16,29,9.00
2018,11,08,16,30,8.90
2018,11,08,16,31,8.90
2018,11,08,16,32,8.90
2018,11,08,16,33,8.90
2018,11,08,16,34,8.90
2018,11,08,16,35,8.80
2018,11,08,16,36,8.80
2018,11,08,16,37,8.80
2018,11,08,16,38,8.80
2018,11,08,16,39,8.80
2018,11,08,16,40,8.70
2018,11,08,16,41,8.70
2018,11,08,16,42,8.70
2018,11,08,16,43,8.70
2018,11,08,16,44,8.70
2018,11,08,16,45,8.70
2018,11,08,16,46,8.70
2018,11,08,16,47,8.70
2018,11,08,16,48,8.70
2018,11,08,16,49,8.70
2018,11,08,16,50,8.70
2018,11,08,16,51,8.60
2018,11,08,16,52,8.60
2018,11,08,16,53,8.60
2018,11,08,16,54,8.60
2018,11,08,16,55,8.60
2018,11,08,16,56,8.60
2018,11,08,16,57,8.60
2018,11,08,16,58,8.50
2018,11,08,16,59,8.50
2018,11,08,17,00,8.50
2018,11,08,17,01,8.50
2018,11,08,17,02,8.50
2018,11,08,17,03,8.50
2018,11,08,17,04,8.50
2018,11,08,17,05,8.40
2018,11,08,17,06,8.40
2018,11,08,17,07,8.40
2018,11,08,17,08,8.40
2018,11,08,17,09,8.40
2018,11,08,17,10,8.40
2018,11,08,17,11,8.40
2018,11,08,17,12,8.40
2018,11,08,17,13,8.40
2018,11,08,17,14,8.40
2018,11,08,17,15,8.30
2018,11,08,17,16,8.30
2018,11,08,17,17,8.30
2018,11,08,17,18,8.30
2018,11,08,17,19,8.30
2018,11,08,17,20,8.30
2018,11,08,17,21,8.30
2018,11,08,17,22,8.30
2018,11,08,17,23,8.30
2018,11,08,17,24,8.30
2018,11,08,17,25,8.30
2018,11,08,17,26,8.30
2018,11,08,17,27,8.30
2018,11,08,17,28,8.30
2018,11,08,17,29,8.30
2018,11,08,17,30,8.30
2018,11,08,17,31,8.30
2018,11,08,17,32,8.30
2018,11,08,17,33,8.30
2018,11,08,17,34,8.30
2018,11,08,17,35,8.30
2018,11,08,17,36,8.30
2018,11,08,17,37,8.30
2018,11,08,17,38,8.30
2018,11,08,17,39,8.30
2018,11,08,17,40,8.30
2018,11,08,17,41,8.30
2018,11,08,17,42,8.30
2018,11,08,17,43,8.20
2018,11,08,17,44,8.20
2018,11,08,17,45,8.20
2018,11,08,17,46,8.10
2018,11,08,17,47,8.10
2018,11,08,17,48,8.10
2018,11,08,17,49,8.00
2018,11,08,17,50,8.00
2018,11,08,17,51,7.90
2018,11,08,17,52,7.90
2018,11,08,17,53,7.80
2018,11,08,17,54,7.80
2018,11,08,17,55,7.70
2018,11,08,17,56,7.70
2018,11,08,17,57,7.70
2018,11,08,17,58,7.70
2018,11,08,17,59,7.60
2018,11,08,18,00,7.60
2018,11,08,18,01,7.60
2018,11,08,18,02,7.60
2018,11,08,18,03,7.50
2018,11,08,18,04,7.50
2018,11,08,18,05,7.50
2018,11,08,18,06,7.40
2018,11,08,18,07,7.40
2018,11,08,18,08,7.40
2018,11,08,18,09,7.40
2018,11,08,18,10,7.40
2018,11,08,18,11,7.40
2018,11,08,18,12,7.40
2018,11,08,18,13,7.30
2018,11,08,18,14,7.30
2018,11,08,18,15,7.30
2018,11,08,18,16,7.30
2018,11,08,18,17,7.30
2018,11,08,18,18,7.30
2018,11,08,18,19,7.30
2018,11,08,18,20,7.20
2018,11,08,18,21,7.20
2018,11,08,18,22,7.20
2018,11,08,18,23,7.10
2018,11,08,18,24,7.10
2018,11,08,18,25,7.10
2018,11,08,18,26,7.10
2018,11,08,18,27,7.10
2018,11,08,18,28,7.00
2018,11,08,18,29,7.00
2018,11,08,18,30,7.00
2018,11,08,18,31,6.90
2018,11,08,18,32,6.90
2018,11,08,18,33,6.90
2018,11,08,18,34,6.90
2018,11,08,18,35,6.80
2018,11,08,18,36,6.80
2018,11,08,18,37,6.80
2018,11,08,18,38,6.80
2018,11,08,18,39,6.80
2018,11,08,18,40,6.80
2018,11,08,18,41,6.80
2018,11,08,18,42,6.80
2018,11,08,18,43,6.70
2018,11,08,18,44,6.70
2018,11,08,18,45,6.70
2018,11,08,18,46,6.70
2018,11,08,18,47,6.70
2018,11,08,18,48,6.60
2018,11,08,18,49,6.60
2018,11,08,18,50,6.60
2018,11,08,18,51,6.60
2018,11,08,18,52,6.60
2018,11,08,18,53,6.60
2018,11,08,18,54,6.50
2018,11,08,18,55,6.50
2018,11,08,18,56,6.50
2018,11,08,18,57,6.50
2018,11,08,18,58,6.50
2018,11,08,18,59,6.40
2018,11,08,19,00,6.40
2018,11,08,19,01,6.40
2018,11,08,19,02,6.30
2018,11,08,19,03,6.30
2018,11,08,19,04,6.30
2018,11,08,19,05,6.30
2018,11,08,19,06,6.30
2018,11,08,19,07,6.30
2018,11,08,19,08,6.20
2018,11,08,19,09,6.20
2018,11,08,19,10,6.20
2018,11,08,19,11,6.20
2018,11,08,19,12,6.20
2018,11,08,19,13,6.20
2018,11,08,19,14,6.20
2018,11,08,19,15,6.20
2018,11,08,19,16,6.20
2018,11,08,19,17,6.10
2018,11,08,19,18,6.10
2018,11,08,19,19,6.10
2018,11,08,19,20,6.10
2018,11,08,19,21,6.10
2018,11,08,19,22,6.10
2018,11,08,19,23,6.10
2018,11,08,19,24,6.00
2018,11,08,19,25,6.00
2018,11,08,19,26,6.00
2018,11,08,19,27,6.00
2018,11,08,19,28,5.90
2018,11,08,19,29,5.90
2018,11,08,19,30,5.90
2018,11,08,19,31,5.90
2018,11,08,19,32,5.80
2018,11,08,19,33,5.80
2018,11,08,19,34,5.80
2018,11,08,19,35,5.80
2018,11,08,19,36,5.80
2018,11,08,19,37,5.80
2018,11,08,19,38,5.70
2018,11,08,19,39,5.70
2018,11,08,19,40,5.70
2018,11,08,19,41,5.70
2018,11,08,19,42,5.70
2018,11,08,19,43,5.70
2018,11,08,19,44,5.70
2018,11,08,19,45,5.70
2018,11,08,19,46,5.70
2018,11,08,19,47,5.70
2018,11,08,19,48,5.70
2018,11,08,19,49,5.60
2018,11,08,19,50,5.60
2018,11,08,19,51,5.60
2018,11,08,19,52,5.60
2018,11,08,19,53,5.60
2018,11,08,19,54,5.60
2018,11,08,19,55,5.60
2018,11,08,19,56,5.60
2018,11,08,19,57,5.60
2018,11,08,19,58,5.60
2018,11,08,19,59,5.60
2018,11,08,20,00,5.60
2018,11,08,20,01,5.60
2018,11,08,20,02,5.50
2018,11,08,20,03,5.50
2018,11,08,20,04,5.50
2018,11,08,20,05,5.50
2018,11,08,20,06,5.40
2018,11,08,20,07,5.40
2018,11,08,20,08,5.40
2018,11,08,20,09,5.40
2018,11,08,20,10,5.40
2018,11,08,20,11,5.40
2018,11,08,20,12,5.40
2018,11,08,20,13,5.40
2018,11,08,20,14,5.40
2018,11,08,20,15,5.40
2018,11,08,20,16,5.40
2018,11,08,20,17,5.40
2018,11,08,20,18,5.40
2018,11,08,20,19,5.40
2018,11,08,20,20,5.40
2018,11,08,20,21,5.40
2018,11,08,20,22,5.40
2018,11,08,20,23,5.40
2018,11,08,20,24,5.40
2018,11,08,20,25,5.40
2018,11,08,20,26,5.40
2018,11,08,20,27,5.40
2018,11,08,20,28,5.40
2018,11,08,20,29,5.40
2018,11,08,20,30,5.40
2018,11,08,20,31,5.40
2018,11,08,20,32,5.30
2018,11,08,20,33,5.30
2018,11,08,20,34,5.30
2018,11,08,20,35,5.30
2018,11,08,20,36,5.30
2018,11,08,20,37,5.30
2018,11,08,20,38,5.30
2018,11,08,20,39,5.20
2018,11,08,20,40,5.20
2018,11,08,20,41,5.20
2018,11,08,20,42,5.20
2018,11,08,20,43,5.20
2018,11,08,20,44,5.20
2018,11,08,20,45,5.20
2018,11,08,20,46,5.10
2018,11,08,20,47,5.10
2018,11,08,20,48,5.10
2018,11,08,20,49,5.10
2018,11,08,20,50,5.10
2018,11,08,20,51,5.10
2018,11,08,20,52,5.10
2018,11,08,20,53,5.00
2018,11,08,20,54,5.00
2018,11,08,20,55,5.00
2018,11,08,20,56,4.90
2018,11,08,20,57,4.90
2018,11,08,20,58,4.90
2018,11,08,20,59,4.90
2018,11,08,21,00,4.90
2018,11,08,21,01,4.90
2018,11,08,21,02,4.80
2018,11,08,21,03,4.80
2018,11,08,21,04,4.80
2018,11,08,21,05,4.80
2018,11,08,21,06,4.80
2018,11,08,21,07,4.80
2018,11,08,21,08,4.80
2018,11,08,21,09,4.80
2018,11,08,21,10,4.80
2018,11,08,21,11,4.80
2018,11,08,21,12,4.80
2018,11,08,21,13,4.80
2018,11,08,21,14,4.80
2018,11,08,21,15,4.80
2018,11,08,21,16,4.80
2018,11,08,21,17,4.70
2018,11,08,21,18,4.70
2018,11,08,21,19,4.70
2018,11,08,21,20,4.70
2018,11,08,21,21,4.70
2018,11,08,21,22,4.60
2018,11,08,21,23,4.60
2018,11,08,21,24,4.60
2018,11,08,21,25,4.60
2018,11,08,21,26,4.60
2018,11,08,21,27,4.50
2018,11,08,21,28,4.50
2018,11,08,21,29,4.50
2018,11,08,21,30,4.50
2018,11,08,21,31,4.40
2018,11,08,21,32,4.40
2018,11,08,21,33,4.40
2018,11,08,21,34,4.40
2018,11,08,21,35,4.40
2018,11,08,21,36,4.30
2018,11,08,21,37,4.30
2018,11,08,21,38,4.30
2018,11,08,21,39,4.30
2018,11,08,21,40,4.30
2018,11,08,21,41,4.30
2018,11,08,21,42,4.30
2018,11,08,21,43,4.30
2018,11,08,21,44,4.30
2018,11,08,21,45,4.30
2018,11,08,21,46,4.30
2018,11,08,21,47,4.30
2018,11,08,21,48,4.30
2018,11,08,21,49,4.30
2018,11,08,21,50,4.30
2018,11,08,21,51,4.30
2018,11,08,21,52,4.30
2018,11,08,21,53,4.30
2018,11,08,21,54,4.30
2018,11,08,21,55,4.30
2018,11,08,21,56,4.40
2018,11,08,21,57,4.30
2018,11,08,21,58,4.40
2018,11,08,21,59,4.30
2018,11,08,22,00,4.40
2018,11,08,22,01,4.40
2018,11,08,22,02,4.40
2018,11,08,22,03,4.40
2018,11,08,22,04,4.40
2018,11,08,22,05,4.40
2018,11,08,22,06,4.40
2018,11,08,22,07,4.40
2018,11,08,22,08,4.40
2018,11,08,22,09,4.40
2018,11,08,22,10,4.40
2018,11,08,22,11,4.40
2018,11,08,22,12,4.40
2018,11,08,22,13,4.40
2018,11,08,22,14,4.40
2018,11,08,22,15,4.40
2018,11,08,22,16,4.40
2018,11,08,22,17,4.40
2018,11,08,22,18,4.40
2018,11,08,22,19,4.40
2018,11,08,22,20,4.40
2018,11,08,22,21,4.40
2018,11,08,22,22,4.40
2018,11,08,22,23,4.40
2018,11,08,22,24,4.40
2018,11,08,22,25,4.40
2018,11,08,22,26,4.40
2018,11,08,22,27,4.40
2018,11,08,22,28,4.40
2018,11,08,22,29,4.40
2018,11,08,22,30,4.40
2018,11,08,22,31,4.40
2018,11,08,22,32,4.30
2018,11,08,22,33,4.30
2018,11,08,22,34,4.30
2018,11,08,22,35,4.30
2018,11,08,22,36,4.20
2018,11,08,22,37,4.20
2018,11,08,22,38,4.20
2018,11,08,22,39,4.20
2018,11,08,22,40,4.20
2018,11,08,22,41,4.20
2018,11,08,22,42,4.10
2018,11,08,22,43,4.10
2018,11,08,22,44,4.10
2018,11,08,22,45,4.10
2018,11,08,22,46,4.10
2018,11,08,22,47,4.00
2018,11,08,22,48,4.00
2018,11,08,22,49,4.00
2018,11,08,22,50,4.00
2018,11,08,22,51,4.00
2018,11,08,22,52,4.00
2018,11,08,22,53,4.00